ECHOSTAR 11

Last updated on Wed Sep 17 2025 00:02:46 GMT+0000 (Coordinated Universal Time)

1 33207U 08035A 25259.56189192 -.00000076 00000+0 00000+0 0 9997 2 33207 0.2925 87.3653 0002470 78.7192 281.9635 1.00272305 48460
UTC large
Height (km)
Speed (km/s)
/
Latitude / Longitude
Inclination (degrees)
Orbital Period (minutes)
Azimuth
Elevation
Range (km)
Doppler Factor

Next 0 passes for location: London (51.5072 / 0.1276)

Sorry there are no passes over London.